Weather History for Franklin, PA

Change the Weather History Date:

Wednesday, January 8, 2014

  Actual Average Record
Temperature  
Mean Temperature 8 °F -  
Max Temperature 19 °F 32 °F 64 °F (2008)
Min Temperature -2 °F 16 °F -7 °F (1942)
Degree Days  
Heating Degree Days 56    
Moisture  
Dew Point 2 °F    
Average Humidity 74    
Maximum Humidity 92    
Minimum Humidity 62    
Precipitation  
Precipitation 0.00 in - - ()
Sea Level Pressure  
Sea Level Pressure 30.34 in    
Wind  
Wind Speed 7 mph (SSW)    
Max Wind Speed 12 mph    
Max Gust Speed -    
Visibility 10 miles    
Events      
Averages and records for this station are not official NWS values.
T = Trace of Precipitation, MM = Missing Value Source: NWS Daily Summary

Daily Weather History Graph

Daily Weather History Graph

Search for Another Location

Airport:

Trip Planner

Search our weather history database for the weather conditions in past years. The results will help you decide how hot, cold, wet, or windy it might be!

Date:

Astronomy

Jan. 08, 2014 Rise Set
Actual Time 7:45 AM EST 5:07 PM EST
Civil Twilight 7:14 AM EST 5:38 PM EST
Nautical Twilight 6:39 AM EST 6:12 PM EST
Astronomical Twilight 6:06 AM EST 6:46 PM EST
Moon 12:01 PM EST (1/8) 12:46 AM EST (1/8)
Length of Visible Light 10h 23m
Length of Day
9h 22m
First Quarter, 56% of the Moon is Illuminated
Jan 8
First Quarter
Jan 15
Full
Jan 24
Last Quarter
Jan 30
New
Feb 6
First Quarter

Hourly Weather History & Observations

Time (EST) Temp. Windchill Dew Point Humidity Pressure Visibility Wind Dir Wind Speed Gust Speed Precip Events Conditions
12:15 AM -0.4 °F -13.4 °F -7.6 °F 72% 30.28 in 10.0 mi SW 6.9 mph - N/A   Clear
12:35 AM -0.4 °F -13.4 °F -7.6 °F 72% 30.27 in 10.0 mi SW 6.9 mph - N/A   Clear
12:55 AM -0.4 °F -13.4 °F -5.8 °F 78% 30.28 in 10.0 mi SW 6.9 mph - N/A   Clear
1:15 AM -0.4 °F -12.0 °F -9.4 °F 66% 30.29 in 10.0 mi SW 5.8 mph - N/A   Clear
1:35 AM -2.2 °F -12.5 °F -7.6 °F 78% 30.29 in 10.0 mi SW 4.6 mph - N/A   Clear
1:55 AM -2.2 °F -14.2 °F -7.6 °F 78% 30.29 in 10.0 mi SW 5.8 mph - N/A   Clear
2:15 AM -2.2 °F -14.2 °F -7.6 °F 78% 30.30 in 10.0 mi SSW 5.8 mph - N/A   Clear
2:35 AM -0.4 °F -14.7 °F -5.8 °F 78% 30.31 in 10.0 mi SSW 8.1 mph - N/A   Clear
2:55 AM -0.4 °F -13.4 °F -7.6 °F 72% 30.32 in 10.0 mi SW 6.9 mph - N/A   Clear
3:15 AM -0.4 °F -14.7 °F -7.6 °F 72% 30.32 in 10.0 mi SSW 8.1 mph - N/A   Clear
3:35 AM -0.4 °F -14.7 °F -7.6 °F 72% 30.32 in 10.0 mi SSW 8.1 mph - N/A   Clear
3:55 AM -2.2 °F -14.2 °F -5.8 °F 85% 30.32 in 10.0 mi SSW 5.8 mph - N/A   Clear
4:15 AM -2.2 °F -14.2 °F -9.4 °F 71% 30.31 in 10.0 mi SSW 5.8 mph - N/A   Clear
4:35 AM -2.2 °F -18.0 °F -5.8 °F 85% 30.31 in 10.0 mi SSW 9.2 mph - N/A   Clear
4:55 AM -0.4 °F -12.0 °F -5.8 °F 78% 30.32 in 10.0 mi SSW 5.8 mph - N/A   Clear
5:15 AM -0.4 °F -10.4 °F -5.8 °F 78% 30.32 in 10.0 mi SW 4.6 mph - N/A   Clear
5:35 AM -0.4 °F -12.0 °F -2.2 °F 92% 30.32 in 10.0 mi SW 5.8 mph - N/A   Clear
5:55 AM -0.4 °F -13.4 °F -7.6 °F 72% 30.32 in 10.0 mi SW 6.9 mph - N/A   Clear
6:15 AM -0.4 °F -10.4 °F -5.8 °F 78% 30.32 in 10.0 mi SW 4.6 mph - N/A   Clear
6:35 AM 1.4 °F -9.9 °F -2.2 °F 85% 30.32 in 10.0 mi SW 5.8 mph - N/A   Mostly Cloudy
6:55 AM 1.4 °F -9.9 °F -4.0 °F 78% 30.33 in 10.0 mi SW 5.8 mph - N/A   Overcast
7:15 AM 1.4 °F -9.9 °F -2.2 °F 85% 30.34 in 10.0 mi SSW 5.8 mph - N/A   Overcast
7:35 AM 1.4 °F -11.3 °F -2.2 °F 85% 30.34 in 10.0 mi South 6.9 mph - N/A   Overcast
7:55 AM 1.4 °F -9.9 °F -2.2 °F 85% 30.34 in 10.0 mi South 5.8 mph - N/A   Overcast
8:15 AM 3.2 °F -9.1 °F -0.4 °F 85% 30.35 in 10.0 mi South 6.9 mph - N/A   Overcast
8:35 AM 3.2 °F -10.3 °F -2.2 °F 78% 30.35 in 10.0 mi South 8.1 mph - N/A   Overcast
8:55 AM 3.2 °F -10.3 °F -0.4 °F 85% 30.35 in 10.0 mi SSW 8.1 mph - N/A   Overcast
9:15 AM 5.0 °F -9.1 °F -0.4 °F 78% 30.37 in 10.0 mi SSW 9.2 mph - N/A   Overcast
9:35 AM 6.8 °F -6.9 °F -0.4 °F 72% 30.38 in 10.0 mi South 9.2 mph - N/A   Overcast
9:55 AM 6.8 °F -3.5 °F -0.4 °F 72% 30.39 in 10.0 mi South 5.8 mph - N/A   Overcast
10:15 AM 6.8 °F -3.5 °F 1.4 °F 79% 30.39 in 10.0 mi South 5.8 mph - N/A   Overcast
10:35 AM 8.6 °F -2.6 °F 1.4 °F 73% 30.39 in 10.0 mi South 6.9 mph - N/A   Overcast
10:55 AM 8.6 °F -4.7 °F 1.4 °F 73% 30.38 in 10.0 mi South 9.2 mph - N/A   Overcast
11:15 AM 10.4 °F -1.5 °F 1.4 °F 67% 30.37 in 10.0 mi South 8.1 mph - N/A   Overcast
11:35 AM 10.4 °F -3.3 °F 1.4 °F 67% 30.36 in 10.0 mi South 10.4 mph - N/A   Overcast
11:55 AM 10.4 °F -3.3 °F 3.2 °F 73% 30.35 in 10.0 mi South 10.4 mph - N/A   Overcast
12:15 PM 12.2 °F -1.0 °F 1.4 °F 62% 30.34 in 10.0 mi South 10.4 mph - N/A   Overcast
12:35 PM 12.2 °F -0.2 °F 1.4 °F 62% 30.34 in 10.0 mi SSW 9.2 mph - N/A   Mostly Cloudy
12:55 PM 12.2 °F -0.2 °F 3.2 °F 67% 30.33 in 10.0 mi South 9.2 mph - N/A   Partly Cloudy
1:15 PM 14.0 °F 2.0 °F 3.2 °F 62% 30.33 in 10.0 mi South 9.2 mph - N/A   Mostly Cloudy
1:35 PM 14.0 °F 1.2 °F 3.2 °F 62% 30.33 in 10.0 mi South 10.4 mph - N/A   Overcast
1:55 PM 14.0 °F 1.2 °F 6.8 °F 73% 30.33 in 10.0 mi South 10.4 mph - N/A   Overcast
2:15 PM 14.0 °F 2.9 °F 3.2 °F 62% 30.33 in 10.0 mi South 8.1 mph - N/A   Overcast
2:35 PM 14.0 °F 0.5 °F 6.8 °F 73% 30.32 in 10.0 mi South 11.5 mph - N/A   Overcast
2:55 PM 15.8 °F 4.2 °F 6.8 °F 68% 30.33 in 10.0 mi South 9.2 mph - N/A   Overcast
3:15 PM 15.8 °F 2.7 °F 5.0 °F 62% 30.33 in 10.0 mi SSW 11.5 mph - N/A   Overcast
3:35 PM 15.8 °F 5.1 °F 6.8 °F 68% 30.34 in 10.0 mi SSW 8.1 mph - N/A   Overcast
3:55 PM 15.8 °F 2.7 °F 6.8 °F 68% 30.33 in 10.0 mi South 11.5 mph - N/A   Overcast
4:15 PM 15.8 °F 4.2 °F 6.8 °F 68% 30.33 in 10.0 mi SSW 9.2 mph - N/A   Overcast
4:35 PM 15.8 °F 6.1 °F 5.0 °F 62% 30.34 in 10.0 mi SSW 6.9 mph - N/A   Overcast
4:55 PM 15.8 °F 6.1 °F 6.8 °F 68% 30.33 in 10.0 mi South 6.9 mph - N/A   Overcast
5:15 PM 15.8 °F 6.1 °F 6.8 °F 68% 30.33 in 10.0 mi South 6.9 mph - N/A   Overcast
5:35 PM 15.8 °F 5.1 °F 6.8 °F 68% 30.34 in 10.0 mi South 8.1 mph - N/A   Overcast
5:55 PM 15.8 °F 7.2 °F 6.8 °F 68% 30.34 in 10.0 mi South 5.8 mph - N/A   Overcast
6:15 PM 15.8 °F 7.2 °F 8.6 °F 73% 30.34 in 10.0 mi South 5.8 mph - N/A   Overcast
6:35 PM 15.8 °F 7.2 °F 6.8 °F 68% 30.35 in 10.0 mi South 5.8 mph - N/A   Overcast
6:55 PM 15.8 °F 7.2 °F 8.6 °F 73% 30.35 in 10.0 mi South 5.8 mph - N/A   Overcast
7:15 PM 15.8 °F 7.2 °F 10.4 °F 79% 30.35 in 10.0 mi South 5.8 mph - N/A   Overcast
7:35 PM 15.8 °F 7.2 °F 10.4 °F 79% 30.35 in 10.0 mi South 5.8 mph - N/A   Overcast
7:55 PM 15.8 °F 8.6 °F 8.6 °F 73% 30.36 in 10.0 mi South 4.6 mph - N/A   Overcast
8:15 PM 17.6 °F 9.3 °F 10.4 °F 73% 30.36 in 10.0 mi South 5.8 mph - N/A   Overcast
8:35 PM 17.6 °F 9.3 °F 10.4 °F 73% 30.36 in 10.0 mi South 5.8 mph - N/A   Overcast
8:55 PM 17.6 °F 10.7 °F 10.4 °F 73% 30.37 in 10.0 mi SSW 4.6 mph - N/A   Overcast
9:15 PM 17.6 °F 10.7 °F 10.4 °F 73% 30.37 in 10.0 mi SSW 4.6 mph - N/A   Overcast
9:35 PM 17.6 °F 8.2 °F 10.4 °F 73% 30.37 in 10.0 mi SSW 6.9 mph - N/A   Overcast
9:55 PM 17.6 °F 10.7 °F 10.4 °F 73% 30.38 in 10.0 mi SW 4.6 mph - N/A   Overcast
10:15 PM 17.6 °F 7.3 °F 12.2 °F 79% 30.38 in 10.0 mi SW 8.1 mph - N/A   Overcast
10:35 PM 17.6 °F 9.3 °F 12.2 °F 79% 30.39 in 10.0 mi SW 5.8 mph - N/A   Overcast
10:55 PM 17.6 °F 10.7 °F 12.2 °F 79% 30.40 in 10.0 mi SW 4.6 mph - N/A   Overcast
11:15 PM 19.4 °F 11.5 °F 14.0 °F 80% 30.40 in 10.0 mi WSW 5.8 mph - N/A   Overcast
11:35 PM 19.4 °F 11.5 °F 12.2 °F 74% 30.40 in 10.0 mi WSW 5.8 mph - N/A   Overcast
11:55 PM 19.4 °F 11.5 °F 12.2 °F 74% 30.40 in 10.0 mi West 5.8 mph - N/A   Overcast